Regional Weather Roundup
Issued by NWS

Home | Current Version | Previous Version | Text Only | Print | Product List | Glossary Off
Versions: 1 2 3 4 5 6 7 8 9 10 11 12 13 14 15 16 17 18 19 20 21 22 23 24 25 26 27 28 29 30 31 32 33 34 35 36 37 38 39 40 41 42 43 44 45 46 47 48 49 50

000
ASUS43 KLMK 251010
RWRKY
KENTUCKY REGIONAL WEATHER ROUNDUP
NATIONAL WEATHER SERVICE LOUISVILLE KY
600 AM EDT SAT APR 25 2015

NOTE "FAIR" INDICATES FEW OR NO CLOUDS BELOW 12,000 FEET
WITH NO SIGNIFICANT WEATHER AND/OR OBSTRUCTIONS TO VISIBILITY.

KYZ001>023-026-027-061>063-070>075-251100-
WESTERN AND SOUTH CENTRAL KENTUCKY

CITY           SKY/WX    TMP DP  RH WIND       PRES   REMARKS
PADUCAH        CLOUDY    57  54  89 SE6       29.64F
HENDERSON      CLOUDY    54  46  76 SE6       29.68F
OWENSBORO      LGT RAIN  55  49  80 S7        29.71F
HOPKINSVILLE   CLOUDY    56  55  95 NE7       29.67F
BOWLING GREEN  CLOUDY    56  52  86 E8        29.71F
GLASGOW        CLOUDY    55  47  74 E3        29.75F
$$

KYZ024-025-028>034-038-045-046-053-251100-
NORTH CENTRAL KENTUCKY

CITY           SKY/WX    TMP DP  RH WIND       PRES   REMARKS
LOUISVILLE/SDF CLOUDY    53  46  77 NE6       29.77F
LOUISVILLE/LOU LGT RAIN  52  45  77 NE7       29.79S
FORT KNOX      DRIZZLE   54  43  66 E6        29.74F
$$

KYZ035>037-039>044-047>052-055>060-089>105-251100-
NORTHEAST KENTUCKY

CITY           SKY/WX    TMP DP  RH WIND       PRES   REMARKS
LEXINGTON      CLOUDY    50  44  80 E12       29.81F
COVINGTON      CLOUDY    48  40  73 SE6       29.81F
FRANKFORT      CLOUDY    51  40  65 E10       29.79F
$$

KYZ054-064>069-076>088-106>120-251100-
SOUTHEAST KENTUCKY

CITY           SKY/WX    TMP DP  RH WIND       PRES   REMARKS
JACKSON        LGT RAIN  47  42  83 NE5       29.84F
LONDON         LGT RAIN  57  38  48 CALM      29.82F
SOMERSET       CLOUDY    55  37  50 S5        29.82F
MIDDLESBORO    DRIZZLE   57  39  50 CALM      29.83F
MONTICELLO     CLOUDY    57  46  67 SE8       29.83F
$$




USA.gov is the U.S. government's official web portal to all federal, state and local government web resources and services.